Aracaju Airport, Brazil

6:40 AM -03 on July 25, 2017 (GMT -0300)
Santa Maria

Weather History for SBAR - September, 2013

Change the Weather History Date:

Monday, September 30, 2013

  Actual Average Record
Temperature  
Mean Temperature 80 °F -  
Max Temperature 82 °F 82 °F 86 °F (1997)
Min Temperature 77 °F 74 °F 71 °F (1999)
Cooling Degree Days 14    
Growing Degree Days 30 (Base 50)    
Moisture  
Dew Point 65 °F    
Average Humidity 60    
Maximum Humidity 74    
Minimum Humidity 51    
Precipitation  
Precipitation 0.00 in - - ()
Sea Level Pressure  
Sea Level Pressure 29.98 in    
Wind  
Wind Speed 11 mph ()    
Max Wind Speed 14 mph    
Max Gust Speed -    
Visibility 6.2 miles    
Events      
Averages and records for this station are not official NWS values.
T = Trace of Precipitation, MM = Missing Value Source: Averaged Metar Reports

Daily Weather History Graph

Daily Weather History Graph

Search for Another Location

Airport or City:

Trip Planner

Search our weather history database for the weather conditions in past years. The results will help you decide how hot, cold, wet, or windy it might be!

Date:

Astronomy

Sep. 30, 2013 Rise Set
Actual Time 5:12 AM -03 5:23 PM -03
Civil Twilight 4:51 AM -03 5:45 PM -03
Nautical Twilight 4:27 AM -03 6:09 PM -03
Astronomical Twilight 4:02 AM -03 6:34 PM -03
Moon 1:48 AM -03 (9/30) 1:50 PM -03 (9/30)
Length of Visible Light 12h 53m
Length of Day
12h 11m
Waning Crescent, 19% of the Moon is Illuminated
Sep 30
Waning Crescent
Oct 4
New
Oct 11
First Quarter
Oct 18
Full
Oct 26
Last Quarter

Hourly Weather History & Observations

Time (-03) Temp. Heat Index Dew Point Humidity Pressure Visibility Wind Dir Wind Speed Gust Speed Precip Events Conditions
12:00 AM 77.0 °F - 68.0 °F 74% 29.98 in 6.2 mi SSE 12.7 mph - N/A   Scattered Clouds
1:00 AM 78.8 °F - 66.2 °F 65% 29.95 in 6.2 mi SSE 12.7 mph - N/A   Scattered Clouds
2:00 AM 78.8 °F - 66.2 °F 65% 29.95 in 6.2 mi SSE 11.5 mph - N/A   Scattered Clouds
3:00 AM 77.0 °F - 66.2 °F 69% 29.95 in 6.2 mi SE 12.7 mph - N/A   Scattered Clouds
4:00 AM 77.0 °F - 64.4 °F 65% 29.95 in 6.2 mi SSE 11.5 mph - N/A   Scattered Clouds
5:00 AM 77.0 °F - 64.4 °F 65% 29.98 in 6.2 mi SE 10.4 mph - N/A   Scattered Clouds
6:00 AM 78.8 °F - 66.2 °F 65% 30.01 in 6.2 mi SE 10.4 mph - N/A   Scattered Clouds
7:00 AM 78.8 °F - 66.2 °F 65% 30.01 in 6.2 mi SSE 11.5 mph - N/A   Scattered Clouds
8:00 AM 80.6 °F 82.3 °F 64.4 °F 58% 30.04 in 6.2 mi SE 13.8 mph - N/A   Scattered Clouds
9:00 AM 82.4 °F 83.4 °F 62.6 °F 51% 30.04 in 6.2 mi SSE 12.7 mph - N/A   Scattered Clouds
10:00 AM 82.4 °F 83.9 °F 64.4 °F 54% 30.04 in 6.2 mi SSE 12.7 mph - N/A   Scattered Clouds
11:00 AM 82.4 °F 83.9 °F 64.4 °F 54% 30.01 in 6.2 mi SSE 11.5 mph - N/A   Scattered Clouds
12:00 PM 82.4 °F 83.9 °F 64.4 °F 54% 29.98 in 6.2 mi SE 11.5 mph - N/A   Scattered Clouds
1:00 PM 82.4 °F 83.9 °F 64.4 °F 54% 29.95 in 6.2 mi SE 13.8 mph - N/A   Partly Cloudy
2:00 PM 82.4 °F 83.9 °F 64.4 °F 54% 29.92 in 6.2 mi SSE 13.8 mph - N/A   Partly Cloudy
3:00 PM 80.6 °F 81.8 °F 62.6 °F 54% 29.92 in 6.2 mi SSE 12.7 mph - N/A   Partly Cloudy
4:00 PM 78.8 °F - 62.6 °F 57% 29.95 in 6.2 mi SSE 11.5 mph - N/A   Partly Cloudy
5:00 PM 80.6 °F 82.3 °F 64.4 °F 58% 29.95 in 6.2 mi SSE 11.5 mph - N/A   Partly Cloudy
6:00 PM 78.8 °F - 64.4 °F 61% 29.95 in 6.2 mi SSE 9.2 mph - N/A   Partly Cloudy
7:00 PM 78.8 °F - 64.4 °F 61% 29.95 in - SE 9.2 mph - N/A   Clear
8:00 PM 78.8 °F - 62.6 °F 57% 29.98 in - SE 10.4 mph - N/A   Clear
9:00 PM 77.0 °F - 62.6 °F 61% 29.98 in - SE 10.4 mph - N/A   Clear
10:00 PM 77.0 °F - 64.4 °F 65% 29.98 in - SE 11.5 mph - N/A   Clear
11:00 PM 77.0 °F - 64.4 °F 65% 29.98 in - SE 11.5 mph - N/A   Clear